Year,Month,Day,Hour,Minute,Value (Times are PST for temperature in C)
2016,05,08,00,00,10.20
2016,05,08,00,01,10.20
2016,05,08,00,02,10.20
2016,05,08,00,03,10.10
2016,05,08,00,04,10.10
2016,05,08,00,05,10.10
2016,05,08,00,06,10.10
2016,05,08,00,07,10.10
2016,05,08,00,08,10.10
2016,05,08,00,09,10.10
2016,05,08,00,10,10.10
2016,05,08,00,11,10.10
2016,05,08,00,12,10.10
2016,05,08,00,13,10.10
2016,05,08,00,14,10.10
2016,05,08,00,15,10.10
2016,05,08,00,16,10.10
2016,05,08,00,17,10.10
2016,05,08,00,18,10.00
2016,05,08,00,19,10.00
2016,05,08,00,20,10.00
2016,05,08,00,21,10.00
2016,05,08,00,22,10.00
2016,05,08,00,23,10.00
2016,05,08,00,24,10.00
2016,05,08,00,25,10.00
2016,05,08,00,26,9.90
2016,05,08,00,27,9.90
2016,05,08,00,28,9.90
2016,05,08,00,29,9.90
2016,05,08,00,30,9.90
2016,05,08,00,31,9.80
2016,05,08,00,32,9.80
2016,05,08,00,33,9.80
2016,05,08,00,34,9.80
2016,05,08,00,35,9.80
2016,05,08,00,36,9.80
2016,05,08,00,37,9.70
2016,05,08,00,38,9.70
2016,05,08,00,39,9.70
2016,05,08,00,40,9.70
2016,05,08,00,41,9.70
2016,05,08,00,42,9.70
2016,05,08,00,43,9.70
2016,05,08,00,44,9.70
2016,05,08,00,45,9.70
2016,05,08,00,46,9.70
2016,05,08,00,47,9.70
2016,05,08,00,48,9.70
2016,05,08,00,49,9.70
2016,05,08,00,50,9.60
2016,05,08,00,51,9.60
2016,05,08,00,52,9.60
2016,05,08,00,53,9.60
2016,05,08,00,54,9.60
2016,05,08,00,55,9.60
2016,05,08,00,56,9.60
2016,05,08,00,57,9.60
2016,05,08,00,58,9.60
2016,05,08,00,59,9.60
2016,05,08,01,00,9.60
2016,05,08,01,01,9.60
2016,05,08,01,02,9.60
2016,05,08,01,03,9.60
2016,05,08,01,04,9.50
2016,05,08,01,05,9.50
2016,05,08,01,06,9.50
2016,05,08,01,07,9.50
2016,05,08,01,08,9.50
2016,05,08,01,09,9.50
2016,05,08,01,10,9.50
2016,05,08,01,11,9.50
2016,05,08,01,12,9.50
2016,05,08,01,13,9.40
2016,05,08,01,14,9.40
2016,05,08,01,15,9.40
2016,05,08,01,16,9.40
2016,05,08,01,17,9.40
2016,05,08,01,18,9.40
2016,05,08,01,19,9.40
2016,05,08,01,20,9.40
2016,05,08,01,21,9.40
2016,05,08,01,22,9.40
2016,05,08,01,23,9.40
2016,05,08,01,24,9.40
2016,05,08,01,25,9.40
2016,05,08,01,26,9.40
2016,05,08,01,27,9.40
2016,05,08,01,28,9.40
2016,05,08,01,29,9.40
2016,05,08,01,30,9.40
2016,05,08,01,31,9.40
2016,05,08,01,32,9.40
2016,05,08,01,33,9.40
2016,05,08,01,34,9.30
2016,05,08,01,35,9.30
2016,05,08,01,36,9.30
2016,05,08,01,37,9.30
2016,05,08,01,38,9.30
2016,05,08,01,39,9.30
2016,05,08,01,40,9.30
2016,05,08,01,41,9.30
2016,05,08,01,42,9.30
2016,05,08,01,43,9.30
2016,05,08,01,44,9.30
2016,05,08,01,45,9.30
2016,05,08,01,46,9.30
2016,05,08,01,47,9.30
2016,05,08,01,48,9.30
2016,05,08,01,49,9.30
2016,05,08,01,50,9.30
2016,05,08,01,51,9.30
2016,05,08,01,52,9.30
2016,05,08,01,53,9.30
2016,05,08,01,54,9.30
2016,05,08,01,55,9.30
2016,05,08,01,56,9.30
2016,05,08,01,57,9.30
2016,05,08,01,58,9.30
2016,05,08,01,59,9.30
2016,05,08,02,00,9.30
2016,05,08,02,01,9.30
2016,05,08,02,02,9.30
2016,05,08,02,03,9.20
2016,05,08,02,04,9.20
2016,05,08,02,05,9.30
2016,05,08,02,06,9.30
2016,05,08,02,07,9.20
2016,05,08,02,08,9.20
2016,05,08,02,09,9.20
2016,05,08,02,10,9.20
2016,05,08,02,11,9.20
2016,05,08,02,12,9.20
2016,05,08,02,13,9.20
2016,05,08,02,14,9.20
2016,05,08,02,15,9.20
2016,05,08,02,16,9.20
2016,05,08,02,17,9.20
2016,05,08,02,18,9.20
2016,05,08,02,19,9.20
2016,05,08,02,20,9.20
2016,05,08,02,21,9.20
2016,05,08,02,22,9.20
2016,05,08,02,23,9.20
2016,05,08,02,24,9.20
2016,05,08,02,25,9.20
2016,05,08,02,26,9.10
2016,05,08,02,27,9.10
2016,05,08,02,28,9.10
2016,05,08,02,29,9.10
2016,05,08,02,30,9.10
2016,05,08,02,31,9.10
2016,05,08,02,32,9.10
2016,05,08,02,33,9.10
2016,05,08,02,34,9.10
2016,05,08,02,35,9.10
2016,05,08,02,36,9.10
2016,05,08,02,37,9.10
2016,05,08,02,38,9.10
2016,05,08,02,39,9.10
2016,05,08,02,40,9.10
2016,05,08,02,41,9.00
2016,05,08,02,42,9.00
2016,05,08,02,43,9.00
2016,05,08,02,44,9.00
2016,05,08,02,45,8.90
2016,05,08,02,46,8.90
2016,05,08,02,47,8.90
2016,05,08,02,48,8.90
2016,05,08,02,49,8.90
2016,05,08,02,50,8.90
2016,05,08,02,51,8.90
2016,05,08,02,52,8.90
2016,05,08,02,53,8.90
2016,05,08,02,54,8.90
2016,05,08,02,55,8.80
2016,05,08,02,56,8.80
2016,05,08,02,57,8.80
2016,05,08,02,58,8.80
2016,05,08,02,59,8.80
2016,05,08,03,00,8.80
2016,05,08,03,01,8.80
2016,05,08,03,02,8.80
2016,05,08,03,03,8.80
2016,05,08,03,04,8.80
2016,05,08,03,05,8.70
2016,05,08,03,06,8.70
2016,05,08,03,07,8.70
2016,05,08,03,08,8.70
2016,05,08,03,09,8.70
2016,05,08,03,10,8.70
2016,05,08,03,11,8.60
2016,05,08,03,12,8.60
2016,05,08,03,13,8.60
2016,05,08,03,14,8.60
2016,05,08,03,15,8.70
2016,05,08,03,16,8.70
2016,05,08,03,17,8.70
2016,05,08,03,18,8.70
2016,05,08,03,19,8.70
2016,05,08,03,20,8.70
2016,05,08,03,21,8.70
2016,05,08,03,22,8.70
2016,05,08,03,23,8.70
2016,05,08,03,24,8.70
2016,05,08,03,25,8.70
2016,05,08,03,26,8.70
2016,05,08,03,27,8.70
2016,05,08,03,28,8.70
2016,05,08,03,29,8.70
2016,05,08,03,30,8.70
2016,05,08,03,31,8.70
2016,05,08,03,32,8.70
2016,05,08,03,33,8.70
2016,05,08,03,34,8.70
2016,05,08,03,35,8.70
2016,05,08,03,36,8.70
2016,05,08,03,37,8.70
2016,05,08,03,38,8.70
2016,05,08,03,39,8.70
2016,05,08,03,40,8.70
2016,05,08,03,41,8.70
2016,05,08,03,42,8.70
2016,05,08,03,43,8.70
2016,05,08,03,44,8.70
2016,05,08,03,45,8.70
2016,05,08,03,46,8.70
2016,05,08,03,47,8.70
2016,05,08,03,48,8.70
2016,05,08,03,49,8.70
2016,05,08,03,50,8.60
2016,05,08,03,51,8.60
2016,05,08,03,52,8.60
2016,05,08,03,53,8.60
2016,05,08,03,54,8.60
2016,05,08,03,55,8.60
2016,05,08,03,56,8.60
2016,05,08,03,57,8.60
2016,05,08,03,58,8.60
2016,05,08,03,59,8.60
2016,05,08,04,00,8.50
2016,05,08,04,01,8.60
2016,05,08,04,02,8.50
2016,05,08,04,03,8.50
2016,05,08,04,04,8.50
2016,05,08,04,05,8.50
2016,05,08,04,06,8.50
2016,05,08,04,07,8.50
2016,05,08,04,08,8.50
2016,05,08,04,09,8.50
2016,05,08,04,10,8.40
2016,05,08,04,11,8.40
2016,05,08,04,12,8.40
2016,05,08,04,13,8.40
2016,05,08,04,14,8.40
2016,05,08,04,15,8.40
2016,05,08,04,16,8.40
2016,05,08,04,17,8.40
2016,05,08,04,18,8.40
2016,05,08,04,19,8.40
2016,05,08,04,20,8.30
2016,05,08,04,21,8.30
2016,05,08,04,22,8.30
2016,05,08,04,23,8.30
2016,05,08,04,24,8.30
2016,05,08,04,25,8.30
2016,05,08,04,26,8.30
2016,05,08,04,27,8.30
2016,05,08,04,28,8.30
2016,05,08,04,29,8.30
2016,05,08,04,30,8.30
2016,05,08,04,31,8.30
2016,05,08,04,32,8.30
2016,05,08,04,33,8.30
2016,05,08,04,34,8.30
2016,05,08,04,35,8.30
2016,05,08,04,36,8.40
2016,05,08,04,37,8.40
2016,05,08,04,38,8.30
2016,05,08,04,39,8.30
2016,05,08,04,40,8.40
2016,05,08,04,41,8.40
2016,05,08,04,42,8.30
2016,05,08,04,43,8.30
2016,05,08,04,44,8.30
2016,05,08,04,45,8.30
2016,05,08,04,46,8.30
2016,05,08,04,47,8.30
2016,05,08,04,48,8.30
2016,05,08,04,49,8.30
2016,05,08,04,50,8.30
2016,05,08,04,51,8.30
2016,05,08,04,52,8.30
2016,05,08,04,53,8.30
2016,05,08,04,54,8.30
2016,05,08,04,55,8.30
2016,05,08,04,56,8.30
2016,05,08,04,57,8.30
2016,05,08,04,58,8.30
2016,05,08,04,59,8.30
2016,05,08,05,00,8.30
2016,05,08,05,01,8.30
2016,05,08,05,02,8.30
2016,05,08,05,03,8.30
2016,05,08,05,04,8.30
2016,05,08,05,05,8.30
2016,05,08,05,06,8.30
2016,05,08,05,07,8.30
2016,05,08,05,08,8.30
2016,05,08,05,09,8.30
2016,05,08,05,10,8.30
2016,05,08,05,11,8.30
2016,05,08,05,12,8.30
2016,05,08,05,13,8.30
2016,05,08,05,14,8.30
2016,05,08,05,15,8.30
2016,05,08,05,16,8.30
2016,05,08,05,17,8.20
2016,05,08,05,18,8.20
2016,05,08,05,19,8.20
2016,05,08,05,20,8.20
2016,05,08,05,21,8.20
2016,05,08,05,22,8.20
2016,05,08,05,23,8.20
2016,05,08,05,24,8.20
2016,05,08,05,25,8.20
2016,05,08,05,26,8.20
2016,05,08,05,27,8.20
2016,05,08,05,28,8.20
2016,05,08,05,29,8.20
2016,05,08,05,30,8.20
2016,05,08,05,31,8.10
2016,05,08,05,32,8.10
2016,05,08,05,33,8.10
2016,05,08,05,34,8.10
2016,05,08,05,35,8.10
2016,05,08,05,36,8.10
2016,05,08,05,37,8.00
2016,05,08,05,38,8.00
2016,05,08,05,39,8.00
2016,05,08,05,40,8.00
2016,05,08,05,41,7.90
2016,05,08,05,42,7.90
2016,05,08,05,43,7.90
2016,05,08,05,44,7.90
2016,05,08,05,45,7.90
2016,05,08,05,46,7.90
2016,05,08,05,47,7.90
2016,05,08,05,48,7.90
2016,05,08,05,49,7.90
2016,05,08,05,50,7.90
2016,05,08,05,51,7.90
2016,05,08,05,52,8.00
2016,05,08,05,53,8.00
2016,05,08,05,54,8.00
2016,05,08,05,55,8.10
2016,05,08,05,56,8.10
2016,05,08,05,57,8.10
2016,05,08,05,58,8.10
2016,05,08,05,59,8.10
2016,05,08,06,00,8.10
2016,05,08,06,01,8.10
2016,05,08,06,02,8.20
2016,05,08,06,03,8.20
2016,05,08,06,04,8.20
2016,05,08,06,05,8.10
2016,05,08,06,06,8.10
2016,05,08,06,07,8.10
2016,05,08,06,08,8.10
2016,05,08,06,09,8.10
2016,05,08,06,10,8.10
2016,05,08,06,11,8.10
2016,05,08,06,12,8.10
2016,05,08,06,13,8.10
2016,05,08,06,14,8.10
2016,05,08,06,15,8.10
2016,05,08,06,16,8.10
2016,05,08,06,17,8.10
2016,05,08,06,18,8.10
2016,05,08,06,19,8.10
2016,05,08,06,20,8.10
2016,05,08,06,21,8.10
2016,05,08,06,22,8.00
2016,05,08,06,23,8.00
2016,05,08,06,24,8.00
2016,05,08,06,25,8.00
2016,05,08,06,26,8.00
2016,05,08,06,27,8.00
2016,05,08,06,28,8.00
2016,05,08,06,29,8.00
2016,05,08,06,30,8.00
2016,05,08,06,31,8.00
2016,05,08,06,32,8.00
2016,05,08,06,33,8.00
2016,05,08,06,34,8.00
2016,05,08,06,35,8.00
2016,05,08,06,36,8.00
2016,05,08,06,37,8.00
2016,05,08,06,38,8.00
2016,05,08,06,39,8.00
2016,05,08,06,40,7.90
2016,05,08,06,41,7.90
2016,05,08,06,42,8.00
2016,05,08,06,43,8.00
2016,05,08,06,44,8.00
2016,05,08,06,45,8.10
2016,05,08,06,46,8.10
2016,05,08,06,47,8.20
2016,05,08,06,48,8.20
2016,05,08,06,49,8.20
2016,05,08,06,50,8.20
2016,05,08,06,51,8.20
2016,05,08,06,52,8.20
2016,05,08,06,53,8.20
2016,05,08,06,54,8.20
2016,05,08,06,55,8.20
2016,05,08,06,56,8.30
2016,05,08,06,57,8.30
2016,05,08,06,58,8.30
2016,05,08,06,59,8.30
2016,05,08,07,00,8.30
2016,05,08,07,01,8.30
2016,05,08,07,02,8.30
2016,05,08,07,03,8.30
2016,05,08,07,04,8.30
2016,05,08,07,05,8.30
2016,05,08,07,06,8.30
2016,05,08,07,07,8.30
2016,05,08,07,08,8.30
2016,05,08,07,09,8.30
2016,05,08,07,10,8.30
2016,05,08,07,11,8.30
2016,05,08,07,12,8.30
2016,05,08,07,13,8.30
2016,05,08,07,14,8.30
2016,05,08,07,15,8.30
2016,05,08,07,16,8.30
2016,05,08,07,17,8.30
2016,05,08,07,18,8.30
2016,05,08,07,19,8.30
2016,05,08,07,20,8.30
2016,05,08,07,21,8.30
2016,05,08,07,22,8.30
2016,05,08,07,23,8.20
2016,05,08,07,24,8.20
2016,05,08,07,25,8.20
2016,05,08,07,26,8.20
2016,05,08,07,27,8.20
2016,05,08,07,28,8.30
2016,05,08,07,29,8.30
2016,05,08,07,30,8.30
2016,05,08,07,31,8.30
2016,05,08,07,32,8.30
2016,05,08,07,33,8.30
2016,05,08,07,34,8.30
2016,05,08,07,35,8.30
2016,05,08,07,36,8.30
2016,05,08,07,37,8.30
2016,05,08,07,38,8.30
2016,05,08,07,39,8.30
2016,05,08,07,40,8.40
2016,05,08,07,41,8.40
2016,05,08,07,42,8.40
2016,05,08,07,43,8.40
2016,05,08,07,44,8.40
2016,05,08,07,45,8.40
2016,05,08,07,46,8.50
2016,05,08,07,47,8.50
2016,05,08,07,48,8.60
2016,05,08,07,49,8.60
2016,05,08,07,50,8.60
2016,05,08,07,51,8.60
2016,05,08,07,52,8.60
2016,05,08,07,53,8.60
2016,05,08,07,54,8.60
2016,05,08,07,55,8.60
2016,05,08,07,56,8.60
2016,05,08,07,57,8.60
2016,05,08,07,58,8.70
2016,05,08,07,59,8.70
2016,05,08,08,00,8.80
2016,05,08,08,01,8.80
2016,05,08,08,02,8.90
2016,05,08,08,03,9.00
2016,05,08,08,04,9.00
2016,05,08,08,05,9.10
2016,05,08,08,06,9.20
2016,05,08,08,07,9.20
2016,05,08,08,08,9.20
2016,05,08,08,09,9.30
2016,05,08,08,10,9.30
2016,05,08,08,11,9.30
2016,05,08,08,12,9.40
2016,05,08,08,13,9.40
2016,05,08,08,14,9.40
2016,05,08,08,15,9.40
2016,05,08,08,16,9.50
2016,05,08,08,17,9.50
2016,05,08,08,18,9.60
2016,05,08,08,19,9.60
2016,05,08,08,20,9.60
2016,05,08,08,21,9.60
2016,05,08,08,22,9.70
2016,05,08,08,23,9.70
2016,05,08,08,24,9.70
2016,05,08,08,25,9.80
2016,05,08,08,26,9.80
2016,05,08,08,27,9.80
2016,05,08,08,28,9.90
2016,05,08,08,29,9.90
2016,05,08,08,30,9.90
2016,05,08,08,31,10.00
2016,05,08,08,32,10.00
2016,05,08,08,33,10.00
2016,05,08,08,34,10.10
2016,05,08,08,35,10.10
2016,05,08,08,36,10.10
2016,05,08,08,37,10.10
2016,05,08,08,38,10.20
2016,05,08,08,39,10.20
2016,05,08,08,40,10.20
2016,05,08,08,41,10.30
2016,05,08,08,42,10.30
2016,05,08,08,43,10.30
2016,05,08,08,44,10.30
2016,05,08,08,45,10.30
2016,05,08,08,46,10.30
2016,05,08,08,47,10.40
2016,05,08,08,48,10.40
2016,05,08,08,49,10.50
2016,05,08,08,50,10.60
2016,05,08,08,51,10.60
2016,05,08,08,52,10.70
2016,05,08,08,53,10.70
2016,05,08,08,54,10.70
2016,05,08,08,55,10.70
2016,05,08,08,56,10.80
2016,05,08,08,57,10.80
2016,05,08,08,58,10.80
2016,05,08,08,59,10.80
2016,05,08,09,00,10.80
2016,05,08,09,01,10.90
2016,05,08,09,02,10.90
2016,05,08,09,03,11.00
2016,05,08,09,04,11.00
2016,05,08,09,05,11.00
2016,05,08,09,06,10.90
2016,05,08,09,07,10.90
2016,05,08,09,08,10.90
2016,05,08,09,09,10.90
2016,05,08,09,10,10.90
2016,05,08,09,11,10.90
2016,05,08,09,12,10.90
2016,05,08,09,13,11.00
2016,05,08,09,14,11.00
2016,05,08,09,15,11.10
2016,05,08,09,16,11.10
2016,05,08,09,17,11.10
2016,05,08,09,18,11.20
2016,05,08,09,19,11.20
2016,05,08,09,20,11.20
2016,05,08,09,21,11.30
2016,05,08,09,22,11.30
2016,05,08,09,23,11.40
2016,05,08,09,24,11.40
2016,05,08,09,25,11.40
2016,05,08,09,26,11.40
2016,05,08,09,27,11.50
2016,05,08,09,28,11.60
2016,05,08,09,29,11.60
2016,05,08,09,30,11.60
2016,05,08,09,31,11.60
2016,05,08,09,32,11.70
2016,05,08,09,33,11.80
2016,05,08,09,34,11.80
2016,05,08,09,35,11.90
2016,05,08,09,36,11.90
2016,05,08,09,37,12.00
2016,05,08,09,38,12.00
2016,05,08,09,39,12.00
2016,05,08,09,40,11.90
2016,05,08,09,41,11.90
2016,05,08,09,42,11.90
2016,05,08,09,43,11.90
2016,05,08,09,44,11.90
2016,05,08,09,45,11.90
2016,05,08,09,46,12.00
2016,05,08,09,47,12.00
2016,05,08,09,48,12.10
2016,05,08,09,49,12.10
2016,05,08,09,50,12.20
2016,05,08,09,51,12.20
2016,05,08,09,52,12.20
2016,05,08,09,53,12.30
2016,05,08,09,54,12.30
2016,05,08,09,55,12.30
2016,05,08,09,56,12.30
2016,05,08,09,57,12.30
2016,05,08,09,58,12.30
2016,05,08,09,59,12.40
2016,05,08,10,00,12.40
2016,05,08,10,01,12.50
2016,05,08,10,02,12.60
2016,05,08,10,03,12.60
2016,05,08,10,04,12.60
2016,05,08,10,05,12.50
2016,05,08,10,06,12.50
2016,05,08,10,07,12.50
2016,05,08,10,08,12.50
2016,05,08,10,09,12.50
2016,05,08,10,10,12.60
2016,05,08,10,11,12.60
2016,05,08,10,12,12.70
2016,05,08,10,13,12.70
2016,05,08,10,14,12.80
2016,05,08,10,15,12.80
2016,05,08,10,16,12.90
2016,05,08,10,17,12.90
2016,05,08,10,18,12.90
2016,05,08,10,19,12.90
2016,05,08,10,20,13.00
2016,05,08,10,21,13.10
2016,05,08,10,22,13.10
2016,05,08,10,23,13.00
2016,05,08,10,24,13.10
2016,05,08,10,25,13.10
2016,05,08,10,26,13.10
2016,05,08,10,27,13.10
2016,05,08,10,28,13.10
2016,05,08,10,29,13.10
2016,05,08,10,30,13.20
2016,05,08,10,31,13.20
2016,05,08,10,32,13.20
2016,05,08,10,33,13.30
2016,05,08,10,34,13.40
2016,05,08,10,35,13.40
2016,05,08,10,36,13.40
2016,05,08,10,37,13.40
2016,05,08,10,38,13.40
2016,05,08,10,39,13.40
2016,05,08,10,40,13.40
2016,05,08,10,41,13.50
2016,05,08,10,42,13.50
2016,05,08,10,43,13.60
2016,05,08,10,44,13.60
2016,05,08,10,45,13.60
2016,05,08,10,46,13.60
2016,05,08,10,47,13.70
2016,05,08,10,48,13.70
2016,05,08,10,49,13.70
2016,05,08,10,50,13.80
2016,05,08,10,51,13.90
2016,05,08,10,52,13.90
2016,05,08,10,53,13.90
2016,05,08,10,54,13.90
2016,05,08,10,55,13.90
2016,05,08,10,56,13.90
2016,05,08,10,57,13.90
2016,05,08,10,58,13.90
2016,05,08,10,59,14.00
2016,05,08,11,00,14.00
2016,05,08,11,01,14.00
2016,05,08,11,02,14.10
2016,05,08,11,03,14.20
2016,05,08,11,04,14.20
2016,05,08,11,05,14.10
2016,05,08,11,06,14.20
2016,05,08,11,07,14.20
2016,05,08,11,08,14.30
2016,05,08,11,09,14.30
2016,05,08,11,10,14.40
2016,05,08,11,11,14.50
2016,05,08,11,12,14.50
2016,05,08,11,13,14.60
2016,05,08,11,14,14.70
2016,05,08,11,15,14.70
2016,05,08,11,16,14.70
2016,05,08,11,17,14.70
2016,05,08,11,18,14.70
2016,05,08,11,19,14.70
2016,05,08,11,20,14.70
2016,05,08,11,21,14.80
2016,05,08,11,22,14.80
2016,05,08,11,23,14.80
2016,05,08,11,24,14.80
2016,05,08,11,25,14.80
2016,05,08,11,26,14.80
2016,05,08,11,27,14.80
2016,05,08,11,28,14.70
2016,05,08,11,29,14.80
2016,05,08,11,30,14.80
2016,05,08,11,31,14.80
2016,05,08,11,32,14.80
2016,05,08,11,33,14.90
2016,05,08,11,34,14.90
2016,05,08,11,35,14.90
2016,05,08,11,36,14.90
2016,05,08,11,37,14.90
2016,05,08,11,38,14.80
2016,05,08,11,39,14.80
2016,05,08,11,40,14.80
2016,05,08,11,41,14.90
2016,05,08,11,42,14.90
2016,05,08,11,43,14.80
2016,05,08,11,44,14.80
2016,05,08,11,45,14.90
2016,05,08,11,46,15.00
2016,05,08,11,47,15.00
2016,05,08,11,48,15.00
2016,05,08,11,49,15.10
2016,05,08,11,50,15.10
2016,05,08,11,51,15.10
2016,05,08,11,52,15.20
2016,05,08,11,53,15.30
2016,05,08,11,54,15.30
2016,05,08,11,55,15.40
2016,05,08,11,56,15.50
2016,05,08,11,57,15.60
2016,05,08,11,58,15.70
2016,05,08,11,59,15.80
2016,05,08,12,00,15.80
2016,05,08,12,01,15.80
2016,05,08,12,02,15.80
2016,05,08,12,03,15.90
2016,05,08,12,04,15.90
2016,05,08,12,05,15.90
2016,05,08,12,06,15.80
2016,05,08,12,07,15.80
2016,05,08,12,08,15.90
2016,05,08,12,09,15.90
2016,05,08,12,10,16.00
2016,05,08,12,11,16.00
2016,05,08,12,12,16.10
2016,05,08,12,13,16.20
2016,05,08,12,14,16.30
2016,05,08,12,15,16.40
2016,05,08,12,16,16.40
2016,05,08,12,17,16.40
2016,05,08,12,18,16.40
2016,05,08,12,19,16.40
2016,05,08,12,20,16.50
2016,05,08,12,21,16.60
2016,05,08,12,22,16.50
2016,05,08,12,23,16.40
2016,05,08,12,24,16.40
2016,05,08,12,25,16.40
2016,05,08,12,26,16.50
2016,05,08,12,27,16.50
2016,05,08,12,28,16.60
2016,05,08,12,29,16.50
2016,05,08,12,30,16.50
2016,05,08,12,31,16.30
2016,05,08,12,32,16.30
2016,05,08,12,33,16.20
2016,05,08,12,34,16.20
2016,05,08,12,35,16.30
2016,05,08,12,36,16.40
2016,05,08,12,37,16.40
2016,05,08,12,38,16.30
2016,05,08,12,39,16.20
2016,05,08,12,40,16.20
2016,05,08,12,41,16.20
2016,05,08,12,42,16.20
2016,05,08,12,43,16.20
2016,05,08,12,44,16.30
2016,05,08,12,45,16.30
2016,05,08,12,46,16.30
2016,05,08,12,47,16.30
2016,05,08,12,48,16.30
2016,05,08,12,49,16.40
2016,05,08,12,50,16.40
2016,05,08,12,51,16.40
2016,05,08,12,52,16.40
2016,05,08,12,53,16.40
2016,05,08,12,54,16.50
2016,05,08,12,55,16.50
2016,05,08,12,56,16.60
2016,05,08,12,57,16.60
2016,05,08,12,58,16.60
2016,05,08,12,59,16.60
2016,05,08,13,00,16.60
2016,05,08,13,01,16.60
2016,05,08,13,02,16.60
2016,05,08,13,03,16.60
2016,05,08,13,04,16.60
2016,05,08,13,05,16.60
2016,05,08,13,06,16.70
2016,05,08,13,07,16.80
2016,05,08,13,08,16.80
2016,05,08,13,09,16.80
2016,05,08,13,10,16.80
2016,05,08,13,11,16.80
2016,05,08,13,12,16.80
2016,05,08,13,13,16.80
2016,05,08,13,14,16.70
2016,05,08,13,15,16.70
2016,05,08,13,16,16.70
2016,05,08,13,17,16.70
2016,05,08,13,18,16.70
2016,05,08,13,19,16.80
2016,05,08,13,20,16.80
2016,05,08,13,21,16.80
2016,05,08,13,22,16.80
2016,05,08,13,23,16.80
2016,05,08,13,24,16.80
2016,05,08,13,25,16.80
2016,05,08,13,26,16.80
2016,05,08,13,27,16.80
2016,05,08,13,28,16.80
2016,05,08,13,29,16.80
2016,05,08,13,30,16.90
2016,05,08,13,31,16.90
2016,05,08,13,32,17.00
2016,05,08,13,33,17.00
2016,05,08,13,34,17.10
2016,05,08,13,35,17.20
2016,05,08,13,36,17.20
2016,05,08,13,37,17.30
2016,05,08,13,38,17.30
2016,05,08,13,39,17.30
2016,05,08,13,40,17.30
2016,05,08,13,41,17.30
2016,05,08,13,42,17.40
2016,05,08,13,43,17.40
2016,05,08,13,44,17.40
2016,05,08,13,45,17.30
2016,05,08,13,46,17.30
2016,05,08,13,47,17.30
2016,05,08,13,48,17.30
2016,05,08,13,49,17.20
2016,05,08,13,50,17.20
2016,05,08,13,51,17.20
2016,05,08,13,52,17.20
2016,05,08,13,53,17.20
2016,05,08,13,54,17.30
2016,05,08,13,55,17.30
2016,05,08,13,56,17.40
2016,05,08,13,57,17.40
2016,05,08,13,58,17.50
2016,05,08,13,59,17.50
2016,05,08,14,00,17.50
2016,05,08,14,01,17.40
2016,05,08,14,02,17.30
2016,05,08,14,03,17.30
2016,05,08,14,04,17.40
2016,05,08,14,05,17.40
2016,05,08,14,06,17.40
2016,05,08,14,07,17.40
2016,05,08,14,08,17.40
2016,05,08,14,09,17.30
2016,05,08,14,10,17.30
2016,05,08,14,11,17.30
2016,05,08,14,12,17.30
2016,05,08,14,13,17.30
2016,05,08,14,14,17.30
2016,05,08,14,15,17.30
2016,05,08,14,16,17.40
2016,05,08,14,17,17.40
2016,05,08,14,18,17.40
2016,05,08,14,19,17.30
2016,05,08,14,20,17.30
2016,05,08,14,21,17.30
2016,05,08,14,22,17.30
2016,05,08,14,23,17.30
2016,05,08,14,24,17.30
2016,05,08,14,25,17.20
2016,05,08,14,26,17.20
2016,05,08,14,27,17.20
2016,05,08,14,28,17.30
2016,05,08,14,29,17.30
2016,05,08,14,30,17.30
2016,05,08,14,31,17.40
2016,05,08,14,32,17.50
2016,05,08,14,33,17.50
2016,05,08,14,34,17.40
2016,05,08,14,35,17.40
2016,05,08,14,36,17.40
2016,05,08,14,37,17.20
2016,05,08,14,38,17.30
2016,05,08,14,39,17.20
2016,05,08,14,40,17.20
2016,05,08,14,41,17.20
2016,05,08,14,42,17.20
2016,05,08,14,43,17.30
2016,05,08,14,44,17.40
2016,05,08,14,45,17.50
2016,05,08,14,46,17.50
2016,05,08,14,47,17.50
2016,05,08,14,48,17.40
2016,05,08,14,49,17.40
2016,05,08,14,50,17.40
2016,05,08,14,51,17.40
2016,05,08,14,52,17.50
2016,05,08,14,53,17.50
2016,05,08,14,54,17.50
2016,05,08,14,55,17.60
2016,05,08,14,56,17.70
2016,05,08,14,57,17.80
2016,05,08,14,58,17.80
2016,05,08,14,59,17.70
2016,05,08,15,00,17.60
2016,05,08,15,01,17.50
2016,05,08,15,02,17.50
2016,05,08,15,03,17.40
2016,05,08,15,04,17.40
2016,05,08,15,05,17.40
2016,05,08,15,06,17.40
2016,05,08,15,07,17.40
2016,05,08,15,08,17.30
2016,05,08,15,09,17.30
2016,05,08,15,10,17.30
2016,05,08,15,11,17.30
2016,05,08,15,12,17.40
2016,05,08,15,13,17.40
2016,05,08,15,14,17.50
2016,05,08,15,15,17.60
2016,05,08,15,16,17.60
2016,05,08,15,17,17.60
2016,05,08,15,18,17.60
2016,05,08,15,19,17.70
2016,05,08,15,20,17.80
2016,05,08,15,21,17.80
2016,05,08,15,22,17.80
2016,05,08,15,23,17.80
2016,05,08,15,24,17.80
2016,05,08,15,25,17.70
2016,05,08,15,26,17.60
2016,05,08,15,27,17.60
2016,05,08,15,28,17.70
2016,05,08,15,29,17.80
2016,05,08,15,30,17.80
2016,05,08,15,31,17.80
2016,05,08,15,32,17.80
2016,05,08,15,33,17.70
2016,05,08,15,34,17.70
2016,05,08,15,35,17.60
2016,05,08,15,36,17.50
2016,05,08,15,37,17.50
2016,05,08,15,38,17.60
2016,05,08,15,39,17.50
2016,05,08,15,40,17.50
2016,05,08,15,41,17.50
2016,05,08,15,42,17.60
2016,05,08,15,43,17.70
2016,05,08,15,44,17.70
2016,05,08,15,45,17.80
2016,05,08,15,46,17.70
2016,05,08,15,47,17.60
2016,05,08,15,48,17.60
2016,05,08,15,49,17.70
2016,05,08,15,50,17.70
2016,05,08,15,51,17.70
2016,05,08,15,52,17.60
2016,05,08,15,53,17.60
2016,05,08,15,54,17.60
2016,05,08,15,55,17.60
2016,05,08,15,56,17.60
2016,05,08,15,57,17.60
2016,05,08,15,58,17.60
2016,05,08,15,59,17.60
2016,05,08,16,00,17.60
2016,05,08,16,01,17.60
2016,05,08,16,02,17.60
2016,05,08,16,03,17.60
2016,05,08,16,04,17.60
2016,05,08,16,05,17.60
2016,05,08,16,06,17.60
2016,05,08,16,07,17.60
2016,05,08,16,08,17.60
2016,05,08,16,09,17.70
2016,05,08,16,10,17.70
2016,05,08,16,11,17.70
2016,05,08,16,12,17.70
2016,05,08,16,13,17.60
2016,05,08,16,14,17.50
2016,05,08,16,15,17.40
2016,05,08,16,16,17.40
2016,05,08,16,17,17.40
2016,05,08,16,18,17.40
2016,05,08,16,19,17.50
2016,05,08,16,20,17.50
2016,05,08,16,21,17.60
2016,05,08,16,22,17.60
2016,05,08,16,23,17.60
2016,05,08,16,24,17.60
2016,05,08,16,25,17.60
2016,05,08,16,26,17.70
2016,05,08,16,27,17.80
2016,05,08,16,28,17.80
2016,05,08,16,29,17.80
2016,05,08,16,30,17.80
2016,05,08,16,31,17.80
2016,05,08,16,32,17.80
2016,05,08,16,33,17.70
2016,05,08,16,34,17.70
2016,05,08,16,35,17.70
2016,05,08,16,36,17.70
2016,05,08,16,37,17.60
2016,05,08,16,38,17.50
2016,05,08,16,39,17.40
2016,05,08,16,40,17.40
2016,05,08,16,41,17.50
2016,05,08,16,42,17.60
2016,05,08,16,43,17.60
2016,05,08,16,44,17.70
2016,05,08,16,45,17.70
2016,05,08,16,46,17.70
2016,05,08,16,47,17.90
2016,05,08,16,48,18.00
2016,05,08,16,49,18.10
2016,05,08,16,50,18.00
2016,05,08,16,51,17.90
2016,05,08,16,52,17.70
2016,05,08,16,53,17.60
2016,05,08,16,54,17.50
2016,05,08,16,55,17.50
2016,05,08,16,56,17.50
2016,05,08,16,57,17.50
2016,05,08,16,58,17.40
2016,05,08,16,59,17.40
2016,05,08,17,00,17.30
2016,05,08,17,01,17.20
2016,05,08,17,02,17.10
2016,05,08,17,03,17.00
2016,05,08,17,04,17.00
2016,05,08,17,05,16.90
2016,05,08,17,06,16.90
2016,05,08,17,07,17.00
2016,05,08,17,08,17.00
2016,05,08,17,09,17.00
2016,05,08,17,10,17.10
2016,05,08,17,11,17.10
2016,05,08,17,12,17.20
2016,05,08,17,13,17.30
2016,05,08,17,14,17.30
2016,05,08,17,15,17.30
2016,05,08,17,16,17.30
2016,05,08,17,17,17.30
2016,05,08,17,18,17.20
2016,05,08,17,19,17.20
2016,05,08,17,20,17.10
2016,05,08,17,21,17.10
2016,05,08,17,22,17.10
2016,05,08,17,23,17.00
2016,05,08,17,24,17.00
2016,05,08,17,25,17.00
2016,05,08,17,26,16.90
2016,05,08,17,27,17.00
2016,05,08,17,28,17.10
2016,05,08,17,29,17.10
2016,05,08,17,30,17.00
2016,05,08,17,31,17.00
2016,05,08,17,32,17.10
2016,05,08,17,33,17.10
2016,05,08,17,34,17.10
2016,05,08,17,35,17.10
2016,05,08,17,36,17.10
2016,05,08,17,37,17.10
2016,05,08,17,38,17.10
2016,05,08,17,39,17.10
2016,05,08,17,40,17.20